Location: Newark
(40.9833°N, 0.0333°W)
Time: 09:39:05
(UTC+00:00)

Transit 4A - Pass Details

Date: 30 October 2020
Orbit: 862 x 982 km, 66.8° (Epoch: 26 November)

Event Time Altitude Azimuth Distance (km) Brightness Sun altitude
Rises 00:25:51 0° 325° (NW) 3,691 - -61.4°
Reaches altitude 10° 00:28:32 10° 320° (NW) 2,733 - -61.2°
Maximum altitude 00:34:37 47° 248° (WSW) 1,253 - -60.7°
Drops below altitude 10° 00:40:32 10° 176° (S) 2,663 - -60.2°
Sets 00:43:07 0° 171° (S) 3,586 - -60.0°
